DIAMANT R/B, 2682

Orbit data source: Space-Track

DIAMANT R/B, 2682 is space debris in LEO originally from a launch on Wed, 15 Feb 1967 UTC launched from the Hamma Guira Space Track Range (HGSTR). Debris objects in space refer to the collection of defunct objects orbiting the Earth. Examples of debris include non-operational satellites, rocket bodies, and fragments generated from explosions, collisions, or faulty payload assembly.

Loading next visibility...
Identifier
2682, 1967-014B
Orbit
LEO
Country
Flag of FRFR
Related business
Manufacturer
Sud
Mission
Spacecraft
Bus & Motor
RUBIS, Unknown motor
Mass
65 kg wet, 65 kg dry
Launch date (UTC)
1967-02-15 (59 years ago)
Launch vehicle
Unknown
Launch site
Hamma Guira Space Track Range (HGSTR)
Object type
Payload
Rocket body
Debris
Shape & HBR
Unknown
Radar Cross Section
Large (>1 m²)

Expand to show TLE details & history
Last TLE update: 19 hours ago

TLE from 19 hours ago
0 DIAMANT R/B
1 02682U 67014B   25348.70981801  .00001183  00000-0  51702-3 0  9993
2 02682  39.4616   1.4326 0746685 345.7119  12.3499 13.32315331839273
Epoch: 2025-12-14T17:02Z
TLE epoch observation values (Epoch: 2025-12-14T17:02:08.276Z)
Latitude
0.00001°
Longitude
22.2793°
Altitude
591.481 km
Speed
7.835 km/s
True Right ascension
00h 05m 43s
True Declination
0° 00' 00"
Sunlit
Object was in daylight at epoch
Visualization orbit readout
Latitude
Unknown
Longitude
Unknown
Altitude
Unknown
Speed
Unknown
Apparent Right ascension
Unknown
Apparent Declination
Unknown
Sunlit
N/A
Visualization observer readout
Local Sidereal Time
10:14:21
Azimuth
Unknown
Elevation
Unknown
Doppler factor
Unknown
Orbital elements
Apogee altitude
1,701.773 km
Perigee altitude
578.98 km
Semi-major axis
7,518.514 km
Eccentricity
0.07467
Inclination
39.4616°
RAAN
1.4326°
Arg. of periapsis
345.7119°
True anomaly
14.3623°
Mean anomaly
12.3499°
Eccentric anomaly
13.33677°
Mean motion
3.32924 °/min
Orbital period
108.13 mins
BSTAR
0.00051702
Loading maneuver chart data...
Computing Atmospheric mass density...
Loading historical data...
Loading historical data...
Loading historical data...
Loading historical data...
Loading historical data...
Loading historical data...
Loading historical data...

Documentation

Showing up to 5 results
|